GW1690 Weather Reports


Display with metric or nautical units.
time (UTC)temp
F
wind
direction
speed
MPH
gust
MPH
rain 1hr
in
rain 24hr
in
rain mn
in
humidity
%
barometer
mb
20260903103527 80 221 1.0 2.0 0.00 0.00 0.00 72 1067.4
20260903103027 80 206 1.0 2.0 0.00 0.00 0.00 72 1066.2
20260903102528 80 215 1.0 2.0 0.00 0.00 0.00 72 1064.7
20260903102027 80 208 1.0 2.0 0.00 0.00 0.00 71 1062.9
20260903101528 80 211 1.0 1.0 0.00 0.00 0.00 71 1060.8
20260903101027 80 198 1.0 2.0 0.00 0.00 0.00 70 1059.1
20260903100527 80 207 1.0 2.0 0.00 0.00 0.00 70 1058.4
20260903100027 81 216 1.0 1.0 0.00 0.00 0.00 70 1058.5
20260903095527 81 210 1.0 2.0 0.00 0.00 0.00 70 1057.7
20260903095030 81 219 1.0 2.0 0.00 0.00 0.00 70 1058.4
20260903094528 81 202 1.0 2.0 0.00 0.00 0.00 70 1057.6
20260903094028 81 203 1.0 2.0 0.00 0.00 0.00 70 1057.8
20260903093529 81 210 1.0 1.0 0.00 0.00 0.00 70 1058.4
20260903093049 81 202 1.0 1.0 0.00 0.00 0.00 70 1059.3
20260903092530 81 211 1.0 1.0 0.00 0.00 0.00 71 1061.4
20260903092029 81 214 1.0 2.0 0.00 0.00 0.00 71 1061.9
20260903091528 81 213 1.0 1.0 0.00 0.00 0.00 71 1061.3
20260903091028 81 205 1.0 2.0 0.00 0.00 0.00 71 1060.9
20260903090530 81 202 1.0 1.0 0.00 0.00 0.00 71 1062.1
20260903090029 81 211 1.0 1.0 0.00 0.00 0.00 71 1063.9
20260903085528 81 217 1.0 1.0 0.00 0.00 0.00 71 1060.7
20260903085051 81 210 1.0 1.0 0.00 0.00 0.00 70 1057.5
20260903084549 81 201 1.0 1.0 0.00 0.00 0.00 70 1057.1
20260903084051 81 202 1.0 1.0 0.00 0.00 0.00 70 1056.7
20260903083529 81 193 1.0 2.0 0.00 0.00 0.00 70 1056.4
20260903083029 81 172 1.0 2.0 0.00 0.00 0.00 70 1057.4
20260903082529 81 193 1.0 2.0 0.00 0.00 0.00 70 1058.0
20260903082029 81 187 1.0 1.0 0.00 0.00 0.00 70 1058.2
20260903081531 82 200 1.0 2.0 0.00 0.00 0.00 70 1056.9
20260903081049 82 199 1.0 2.0 0.00 0.00 0.00 70 1056.6
20260903080530 82 140 1.0 2.0 0.00 0.00 0.00 70 1056.3
20260903080033 82 183 1.0 2.0 0.00 0.00 0.00 70 1056.3
20260903075530 82 168 1.0 2.0 0.00 0.00 0.00 69 1054.9
20260903075031 82 203 1.0 1.0 0.00 0.00 0.00 69 1052.6
20260903074531 82 161 1.0 2.0 0.00 0.00 0.00 68 1050.9
20260903074029 82 204 1.0 2.0 0.00 0.00 0.00 68 1049.3
20260903073531 83 185 1.0 2.0 0.00 0.00 0.00 68 1047.3
20260903073031 83 180 1.0 2.0 0.00 0.00 0.00 67 1045.3
20260903072530 83 191 1.0 2.0 0.00 0.00 0.00 67 1043.8
20260903072031 83 185 1.0 1.0 0.00 0.00 0.00 67 1042.3
20260903071532 83 159 1.0 2.0 0.00 0.00 0.00 67 1041.9
20260903071030 83 184 1.0 2.0 0.00 0.00 0.00 67 1041.6
20260903070531 83 119 1.0 3.0 0.00 0.00 0.00 67 1042.1
20260903070033 83 194 1.0 2.0 0.00 0.00 0.00 67 1041.8
20260903065531 83 160 1.0 1.0 0.00 0.00 0.00 67 1042.0
20260903065052 83 168 1.0 2.0 0.00 0.00 0.00 67 1043.6
20260903064533 83 197 1.0 2.0 0.00 0.00 0.00 67 1042.8
20260903064051 83 166 1.0 1.0 0.00 0.00 0.00 67 1042.6
20260903063516 83 194 1.0 2.0 0.00 0.00 0.00 66 1041.4
20260903063017 83 0.0 0.0 0.00 0.00 0.00 66 1041.0
20260903062532 84 162 1.0 2.0 0.00 0.00 0.00 66 1042.4
20260903062031 84 175 1.0 2.0 0.00 0.00 0.00 66 1040.6
20260903061524 84 173 1.0 2.0 0.00 0.00 0.00 66 1041.5
20260903061023 84 200 1.0 2.0 0.00 0.00 0.00 66 1040.6
20260903060525 84 157 1.0 2.0 0.00 0.00 0.00 66 1041.1
20260903060024 84 206 1.0 2.0 0.00 0.00 0.00 66 1041.1
20260903055521 84 202 1.0 2.0 0.00 0.00 0.00 66 1040.3
20260903055024 84 193 1.0 2.0 0.00 0.00 0.00 66 1040.3
20260903054525 84 193 1.0 2.0 0.00 0.00 0.00 66 1040.5
20260903054023 84 191 1.0 2.0 0.00 0.00 0.00 66 1039.6
20260903053529 84 163 1.0 3.0 0.00 0.00 0.00 65 1038.5
20260903053022 85 199 1.0 2.0 0.00 0.00 0.00 65 1037.5
20260903052542 85 203 1.0 3.0 0.00 0.00 0.00 65 1036.4
20260903052026 85 196 1.0 2.0 0.00 0.00 0.00 65 1035.7
20260903051524 85 178 1.0 2.0 0.00 0.00 0.00 64 1035.1
20260903051024 85 162 1.0 3.0 0.00 0.00 0.00 64 1035.1
20260903050524 85 172 1.0 2.0 0.00 0.00 0.00 65 1035.5
20260903050021 85 212 1.0 2.0 0.00 0.00 0.00 64 1034.3
20260903045522 85 197 1.0 2.0 0.00 0.00 0.00 64 1033.2
20260903045021 86 179 1.0 2.0 0.00 0.00 0.00 64 1032.6
20260903044522 86 170 1.0 2.0 0.00 0.00 0.00 63 1031.5
20260903044021 86 158 1.0 3.0 0.00 0.00 0.00 63 1031.2
20260903043521 86 169 1.0 3.0 0.00 0.00 0.00 63 1030.9
20260903043022 86 189 1.0 2.0 0.00 0.00 0.00 63 1030.7
20260903042522 86 165 1.0 2.0 0.00 0.00 0.00 63 1030.2
20260903042021 86 155 1.0 3.0 0.00 0.00 0.00 63 1029.5
20260903041526 86 181 1.0 4.0 0.00 0.00 0.00 63 1029.8
20260903041022 86 187 1.0 3.0 0.00 0.00 0.00 63 1029.5
20260903040522 86 184 1.0 3.0 0.00 0.00 0.00 62 1028.4
20260903040023 87 165 1.0 3.0 0.00 0.00 0.00 62 1028.0
20260903035545 87 156 1.0 3.0 0.00 0.00 0.00 62 1027.9
20260903035023 87 164 1.0 2.0 0.00 0.00 0.00 62 1028.3
20260903034531 87 196 1.0 2.0 0.00 0.00 0.00 62 1027.9
20260903034027 87 162 1.0 2.0 0.00 0.00 0.00 62 1027.1
20260903033521 87 194 1.0 2.0 0.00 0.00 0.00 62 1027.2
20260903033026 87 176 1.0 2.0 0.00 0.00 0.00 61 1026.8
20260903032524 87 186 1.0 2.0 0.00 0.00 0.00 61 1026.0
20260903032023 87 190 1.0 2.0 0.00 0.00 0.00 61 1025.4
20260903031531 87 177 1.0 2.0 0.00 0.00 0.00 61 1025.3
20260903031023 87 207 1.0 2.0 0.00 0.00 0.00 61 1024.8
20260903030523 88 189 1.0 3.0 0.00 0.00 0.00 61 1024.0
20260903030022 88 182 1.0 3.0 0.00 0.00 0.00 60 1023.4
20260903025604 88 187 1.0 2.0 0.00 0.00 0.00 60 1022.7
20260903025024 88 165 1.0 4.0 0.00 0.00 0.00 60 1022.2
20260903024522 88 176 1.0 2.0 0.00 0.00 0.00 60 1021.8
20260903024024 88 204 1.0 2.0 0.00 0.00 0.00 59 1021.3
20260903023524 88 177 1.0 3.0 0.00 0.00 0.00 59 1020.5
20260903023025 88 192 1.0 2.0 0.00 0.00 0.00 59 1020.1
20260903022524 89 183 1.0 2.0 0.00 0.00 0.00 58 1019.8
20260903022024 89 181 1.0 4.0 0.00 0.00 0.00 58 1018.9
20260903021522 89 165 2.0 4.0 0.00 0.00 0.00 58 1018.3
20260903021023 89 170 1.0 4.0 0.00 0.00 0.00 57 1018.0
20260903020536 89 192 1.0 4.0 0.00 0.00 0.00 57 1017.4
20260903020024 89 182 1.0 3.0 0.00 0.00 0.00 57 1016.9
20260903015543 90 181 1.0 2.0 0.00 0.00 0.00 56 1016.3
20260903015022 90 198 1.0 2.0 0.00 0.00 0.00 56 1015.7
20260903014525 90 184 1.0 2.0 0.00 0.00 0.00 55 1015.2
20260903014024 90 174 2.0 3.0 0.00 0.00 0.00 55 1014.6
20260903013522 90 157 1.0 3.0 0.00 0.00 0.00 54 1014.1
20260903013049 91 167 1.0 3.0 0.00 0.00 0.00 53 1013.7
20260903012522 91 163 2.0 4.0 0.00 0.00 0.00 52 1013.3
20260903012022 91 146 2.0 4.0 0.00 0.00 0.00 51 1012.9
20260903011536 91 172 1.0 4.0 0.00 0.00 0.00 50 1012.6
20260903011042 92 174 1.0 3.0 0.00 0.00 0.00 50 1012.4
20260903010522 92 214 1.0 3.0 0.00 0.00 0.00 49 1012.2
20260903010028 92 190 1.0 2.0 0.00 0.00 0.00 48 1012.0
20260903005559 93 214 1.0 2.0 0.00 0.00 0.00 48 1011.9
20260903005026 93 222 1.0 2.0 0.00 0.00 0.00 47 1011.8
20260903004524 93 221 0.0 1.0 0.00 0.00 0.00 47 1011.6
20260903004022 93 215 1.0 1.0 0.00 0.00 0.00 46 1011.5
20260903003525 94 194 0.0 1.0 0.00 0.00 0.00 46 1011.3
20260903003024 94 187 0.0 2.0 0.00 0.00 0.00 45 1011.2
20260903002525 94 154 1.0 4.0 0.00 0.00 0.00 44 1010.9
20260903002204 94 173 0.0 1.0 0.00 0.00 0.00 44 1010.7
20260903001523 95 175 1.0 2.0 0.00 0.00 0.00 43 1010.5
20260903001033 95 172 1.0 2.0 0.00 0.00 0.00 42 1010.3
20260903000523 95 167 1.0 4.0 0.00 0.00 0.00 41 1010.2
20260903000020 95 162 1.0 2.0 0.00 0.00 0.00 41 1010.0
20260902235521 95 190 0.0 1.0 0.00 0.00 0.00 41 1010.0
20260902235026 96 160 1.0 2.0 0.00 0.00 0.00 40 1009.9
20260902234543 96 186 1.0 2.0 0.00 0.00 0.00 40 1009.8
20260902234046 96 181 0.0 2.0 0.00 0.00 0.00 39 1009.8
20260902233544 96 165 1.0 3.0 0.00 0.00 0.00 39 1009.6
20260902233044 96 183 0.0 2.0 0.00 0.00 0.00 39 1009.6
20260902232525 96 160 0.0 2.0 0.00 0.00 0.00 38 1009.6
20260902232041 96 158 1.0 4.0 0.00 0.00 0.00 37 1009.4
20260902231521 97 163 1.0 3.0 0.00 0.00 0.00 37 1009.4
20260902231022 97 150 1.0 4.0 0.00 0.00 0.00 37 1009.3
20260902230524 97 167 1.0 3.0 0.00 0.00 0.00 37 1009.2
20260902230027 98 172 1.0 5.0 0.00 0.00 0.00 36 1009.1
20260902225521 98 149 2.0 6.0 0.00 0.00 0.00 36 1009.1
20260902225025 98 158 1.0 4.0 0.00 0.00 0.00 36 1009.1
20260902224527 99 165 1.0 4.0 0.00 0.00 0.00 36 1009.0
20260902224024 99 162 0.0 2.0 0.00 0.00 0.00 36 1009.1
20260902223522 99 175 1.0 4.0 0.00 0.00 0.00 35 1008.9
20260902223022 99 161 1.0 4.0 0.00 0.00 0.00 36 1009.1
20260902222521 99 122 1.0 3.0 0.00 0.00 0.00 35 1009.0
20260902222025 99 145 1.0 3.0 0.00 0.00 0.00 35 1009.0
20260902221522 100 158 1.0 3.0 0.00 0.00 0.00 35 1009.0
20260902221042 100 134 1.0 4.0 0.00 0.00 0.00 35 1009.0
20260902220522 100 143 1.0 4.0 0.00 0.00 0.00 34 1008.7
20260902220022 100 159 1.0 2.0 0.00 0.00 0.00 34 1008.6
20260902215548 100 148 1.0 2.0 0.00 0.00 0.00 34 1008.8
20260902215024 100 130 1.0 3.0 0.00 0.00 0.00 35 1008.9
20260902214526 100 149 1.0 3.0 0.00 0.00 0.00 35 1009.0
20260902213543 100 144 1.0 3.0 0.00 0.00 0.00 36 1009.2
20260902213052 99 67 1.0 3.0 0.00 0.00 0.00 37 1009.4
20260902212522 99 124 1.0 4.0 0.00 0.00 0.00 36 1009.4
20260902212023 99 150 1.0 4.0 0.00 0.00 0.00 36 1009.3
20260902211521 99 159 1.0 3.0 0.00 0.00 0.00 38 1009.7
20260902211028 99 161 1.0 4.0 0.00 0.00 0.00 37 1009.6
20260902210521 100 129 2.0 5.0 0.00 0.00 0.00 37 1009.8
20260902210024 100 156 1.0 4.0 0.00 0.00 0.00 36 1009.5
20260902205526 100 172 1.0 3.0 0.00 0.00 0.00 36 1009.5
20260902205041 100 157 2.0 4.0 0.00 0.00 0.00 38 1009.8
20260902204544 100 145 1.0 3.0 0.00 0.00 0.00 38 1009.9
20260902204035 100 176 1.0 4.0 0.00 0.00 0.00 38 1009.9
20260902203524 100 134 2.0 5.0 0.00 0.00 0.00 38 1010.0
20260902203020 100 155 1.0 3.0 0.00 0.00 0.00 37 1009.8
20260902202531 100 150 1.0 2.0 0.00 0.00 0.00 38 1010.0
20260902202021 99 137 1.0 3.0 0.00 0.00 0.00 38 1010.0
20260902201521 99 159 1.0 3.0 0.00 0.00 0.00 39 1010.1
20260902201022 99 145 1.0 3.0 0.00 0.00 0.00 38 1010.4
20260902200521 100 154 1.0 4.0 0.00 0.00 0.00 38 1010.2
20260902200024 99 184 0.0 3.0 0.00 0.00 0.00 37 1010.2
20260902195526 99 137 2.0 5.0 0.00 0.00 0.00 37 1010.2
20260902195022 99 140 1.0 4.0 0.00 0.00 0.00 38 1010.3
20260902194521 99 177 1.0 5.0 0.00 0.00 0.00 37 1010.3
20260902194024 99 140 2.0 4.0 0.00 0.00 0.00 38 1010.4
20260902193531 100 148 2.0 6.0 0.00 0.00 0.00 38 1010.4
20260902193022 100 138 1.0 4.0 0.00 0.00 0.00 39 1010.6
20260902192542 100 152 1.0 2.0 0.00 0.00 0.00 39 1010.9
20260902192022 100 109 1.0 3.0 0.00 0.00 0.00 39 1010.7
20260902191522 100 137 2.0 3.0 0.00 0.00 0.00 39 1010.9
20260902191024 100 179 2.0 5.0 0.00 0.00 0.00 40 1010.9
20260902190522 100 141 2.0 5.0 0.00 0.00 0.00 40 1011.1
20260902190022 100 166 1.0 3.0 0.00 0.00 0.00 40 1011.2
20260902185523 100 138 1.0 4.0 0.00 0.00 0.00 39 1011.0
20260902185023 100 131 2.0 4.0 0.00 0.00 0.00 40 1011.3
20260902184522 100 127 2.0 6.0 0.00 0.00 0.00 39 1011.1
20260902184024 100 172 1.0 3.0 0.00 0.00 0.00 40 1011.2
20260902183522 100 156 1.0 3.0 0.00 0.00 0.00 40 1011.1
20260902183023 100 150 1.0 4.0 0.00 0.00 0.00 40 1011.1
20260902182544 100 305 1.0 3.0 0.00 0.00 0.00 41 1011.3
20260902182047 100 267 1.0 4.0 0.00 0.00 0.00 42 1011.5
20260902181541 100 145 1.0 4.0 0.00 0.00 0.00 42 1011.5
20260902181045 100 132 2.0 5.0 0.00 0.00 0.00 40 1011.0
20260902180532 101 199 1.0 5.0 0.00 0.00 0.00 40 1011.2
20260902180031 101 140 2.0 4.0 0.00 0.00 0.00 40 1011.1
20260902175524 102 197 1.0 6.0 0.00 0.00 0.00 39 1011.2
20260902175027 101 277 1.0 3.0 0.00 0.00 0.00 41 1011.5
20260902174524 100 274 2.0 5.0 0.00 0.00 0.00 40 1011.5
20260902174021 99 287 2.0 5.0 0.00 0.00 0.00 42 1011.7
20260902173540 99 186 2.0 5.0 0.00 0.00 0.00 43 1011.9
20260902173030 99 168 2.0 4.0 0.00 0.00 0.00 42 1011.9
20260902172520 100 153 2.0 5.0 0.00 0.00 0.00 42 1012.0
20260902172030 100 160 1.0 5.0 0.00 0.00 0.00 43 1012.1
20260902171521 100 176 2.0 5.0 0.00 0.00 0.00 43 1012.1
20260902171023 100 185 1.0 4.0 0.00 0.00 0.00 42 1012.1
20260902170526 99 164 1.0 5.0 0.00 0.00 0.00 43 1012.3
20260902170029 100 125 1.0 4.0 0.00 0.00 0.00 42 1012.1
20260902165523 100 142 1.0 4.0 0.00 0.00 0.00 42 1012.1
20260902165023 100 158 1.0 4.0 0.00 0.00 0.00 41 1012.0
20260902164525 99 252 1.0 4.0 0.00 0.00 0.00 42 1012.2
20260902164022 99 165 1.0 4.0 0.00 0.00 0.00 42 1012.1
20260902163523 99 285 1.0 4.0 0.00 0.00 0.00 41 1011.9
20260902163022 98 236 1.0 4.0 0.00 0.00 0.00 43 1012.4
20260902162522 97 151 1.0 4.0 0.00 0.00 0.00 44 1012.6
20260902162021 96 174 2.0 4.0 0.00 0.00 0.00 45 1012.8
20260902161523 96 151 2.0 5.0 0.00 0.00 0.00 45 1012.9
20260902161022 96 164 2.0 5.0 0.00 0.00 0.00 45 1012.8
20260902160524 96 163 2.0 5.0 0.00 0.00 0.00 46 1013.0
20260902160022 96 162 2.0 5.0 0.00 0.00 0.00 47 1013.2
20260902155529 95 151 2.0 6.0 0.00 0.00 0.00 46 1012.9
20260902155033 95 189 1.0 3.0 0.00 0.00 0.00 48 1013.3
20260902154532 94 152 2.0 4.0 0.00 0.00 0.00 49 1013.5
20260902154023 94 145 2.0 4.0 0.00 0.00 0.00 48 1013.5
20260902153522 94 144 2.0 4.0 0.00 0.00 0.00 48 1013.4
20260902153023 94 138 2.0 5.0 0.00 0.00 0.00 48 1013.3
20260902152523 94 210 1.0 2.0 0.00 0.00 0.00 49 1013.4
20260902152022 94 161 2.0 7.0 0.00 0.00 0.00 49 1013.4
20260902151530 93 158 2.0 4.0 0.00 0.00 0.00 50 1013.5
20260902151103 93 145 2.0 6.0 0.00 0.00 0.00 50 1013.5
20260902150523 93 148 2.0 4.0 0.00 0.00 0.00 51 1013.5
20260902150023 93 152 1.0 3.0 0.00 0.00 0.00 52 1013.6
20260902145523 92 145 1.0 3.0 0.00 0.00 0.00 52 1013.7
20260902145129 92 174 1.0 3.0 0.00 0.00 0.00 52 1013.7
20260902144553 91 182 1.0 2.0 0.00 0.00 0.00 53 1013.9
20260902144033 91 144 2.0 3.0 0.00 0.00 0.00 54 1014.1
20260902143548 90 158 1.0 4.0 0.00 0.00 0.00 55 1014.3
20260902143048 89 155 1.0 2.0 0.00 0.00 0.00 57 1015.4
20260902142533 88 235 1.0 2.0 0.00 0.00 0.00 58 1016.9
20260902142033 88 128 1.0 2.0 0.00 0.00 0.00 59 1018.3
20260902141532 87 163 1.0 3.0 0.00 0.00 0.00 60 1021.4
20260902141035 87 183 1.0 2.0 0.00 0.00 0.00 60 1021.5
20260902140534 86 146 1.0 3.0 0.00 0.00 0.00 61 1023.8
20260902140131 86 197 1.0 2.0 0.00 0.00 0.00 62 1026.6
20260902135535 85 179 1.0 3.0 0.00 0.00 0.00 63 1028.6
20260902135106 85 127 1.0 3.0 0.00 0.00 0.00 63 1029.6
20260902134536 85 179 1.0 2.0 0.00 0.00 0.00 64 1031.4
20260902134053 84 180 2.0 2.0 0.00 0.00 0.00 64 1032.5
20260902133622 84 140 1.0 2.0 0.00 0.00 0.00 64 1031.6
20260902133055 84 165 1.0 2.0 0.00 0.00 0.00 65 1036.7
20260902132535 83 138 1.0 2.0 0.00 0.00 0.00 65 1037.0
20260902132049 83 159 1.0 2.0 0.00 0.00 0.00 66 1039.9
20260902131534 83 210 1.0 1.0 0.00 0.00 0.00 66 1041.5
20260902131049 83 78 1.0 2.0 0.00 0.00 0.00 66 1040.8
20260902130535 82 144 1.0 2.0 0.00 0.00 0.00 67 1042.9
20260902130037 82 76 1.0 2.0 0.00 0.00 0.00 67 1045.7
20260902125550 82 165 1.0 2.0 0.00 0.00 0.00 68 1048.1
20260902125106 82 195 1.0 2.0 0.00 0.00 0.00 68 1053.2
20260902124535 81 136 1.0 2.0 0.00 0.00 0.00 69 1054.3
20260902124115 81 208 1.0 2.0 0.00 0.00 0.00 69 1055.6
20260902123536 81 202 1.0 2.0 0.00 0.00 0.00 70 1058.3
20260902123036 81 210 1.0 2.0 0.00 0.00 0.00 70 1057.6
20260902122537 81 226 1.0 2.0 0.00 0.00 0.00 69 1057.0
20260902122036 81 203 1.0 2.0 0.00 0.00 0.00 70 1057.0
20260902121600 81 324 1.0 2.0 0.00 0.00 0.00 70 1057.1
20260902121020 81 218 1.0 2.0 0.00 0.00 0.00 69 1056.1
20260902120521 81 223 1.0 2.0 0.00 0.00 0.00 69 1053.9
20260902120021 81 210 1.0 2.0 0.00 0.00 0.00 69 1053.2
20260902115522 81 192 1.0 1.0 0.00 0.00 0.00 69 1053.0
20260902115022 81 221 1.0 2.0 0.00 0.00 0.00 69 1053.0
20260902114522 81 166 1.0 2.0 0.00 0.00 0.00 68 1051.1
20260902114021 81 212 1.0 2.0 0.00 0.00 0.00 68 1051.0
20260902113611 81 212 1.0 2.0 0.00 0.00 0.00 68 1050.1
20260902113051 81 102 1.0 3.0 0.00 0.00 0.00 68 1049.7
20260902112536 81 127 1.0 2.0 0.00 0.00 0.00 68 1050.3
20260902112039 81 203 1.0 2.0 0.00 0.00 0.00 68 1050.1
20260902111539 81 220 1.0 2.0 0.00 0.00 0.00 68 1048.7
20260902111053 81 175 1.0 2.0 0.00 0.00 0.00 67 1047.1
20260902110522 81 218 1.0 2.0 0.00 0.00 0.00 67 1046.7
20260902110022 81 201 1.0 2.0 0.00 0.00 0.00 67 1046.5
20260902105522 81 213 1.0 2.0 0.00 0.00 0.00 67 1046.9
20260902105024 81 159 1.0 2.0 0.00 0.00 0.00 67 1045.8
20260902104522 81 221 1.0 2.0 0.00 0.00 0.00 67 1044.8
20260902104021 81 194 1.0 2.0 0.00 0.00 0.00 67 1044.6